#datetime,building,power
2022-10-18T00:00:00,rvs,11.11
2022-10-18T00:01:00,rvs,14.17
2022-10-18T00:02:00,rvs,15.78
2022-10-18T00:03:00,rvs,17.17
2022-10-18T00:04:00,rvs,18.80
2022-10-18T00:05:00,rvs,18.38
2022-10-18T00:06:00,rvs,19.58
2022-10-18T00:07:00,rvs,18.75
2022-10-18T00:08:00,rvs,18.81
2022-10-18T00:09:00,rvs,33.94
2022-10-18T00:10:00,rvs,25.60
2022-10-18T00:11:00,rvs,24.71
2022-10-18T00:12:00,rvs,28.48
2022-10-18T00:13:00,rvs,28.23
2022-10-18T00:14:00,rvs,28.02
2022-10-18T00:15:00,rvs,10.91
2022-10-18T00:16:00,rvs,13.59
2022-10-18T00:17:00,rvs,14.42
2022-10-18T00:18:00,rvs,16.07
2022-10-18T00:19:00,rvs,15.84
2022-10-18T00:20:00,rvs,15.33
2022-10-18T00:21:00,rvs,14.25
2022-10-18T00:22:00,rvs,14.51
2022-10-18T00:23:00,rvs,10.30
2022-10-18T00:24:00,rvs,10.20
2022-10-18T00:25:00,rvs,10.17
2022-10-18T00:26:00,rvs,10.35
2022-10-18T00:27:00,rvs,10.29
2022-10-18T00:28:00,rvs,10.01
2022-10-18T00:29:00,rvs,13.61
2022-10-18T00:30:00,rvs,14.56
2022-10-18T00:31:00,rvs,15.82
2022-10-18T00:32:00,rvs,14.68
2022-10-18T00:33:00,rvs,17.08
2022-10-18T00:34:00,rvs,18.23
2022-10-18T00:35:00,rvs,22.59
2022-10-18T00:36:00,rvs,21.50
2022-10-18T00:37:00,rvs,22.72
2022-10-18T00:38:00,rvs,22.63
2022-10-18T00:39:00,rvs,25.56
2022-10-18T00:40:00,rvs,25.24
2022-10-18T00:41:00,rvs,24.94
2022-10-18T00:42:00,rvs,26.35
2022-10-18T00:43:00,rvs,25.22
2022-10-18T00:44:00,rvs,25.60
2022-10-18T00:45:00,rvs,25.13
2022-10-18T00:46:00,rvs,24.76
2022-10-18T00:47:00,rvs,19.48
2022-10-18T00:48:00,rvs,20.22
2022-10-18T00:49:00,rvs,20.75
2022-10-18T00:50:00,rvs,21.28
2022-10-18T00:51:00,rvs,20.41
2022-10-18T00:52:00,rvs,19.90
2022-10-18T00:53:00,rvs,17.32
2022-10-18T00:54:00,rvs,17.05
2022-10-18T00:55:00,rvs,20.01
2022-10-18T00:56:00,rvs,21.38
2022-10-18T00:57:00,rvs,22.75
2022-10-18T00:58:00,rvs,23.29
2022-10-18T00:59:00,rvs,23.84
2022-10-18T01:00:00,rvs,22.70
2022-10-18T01:01:00,rvs,22.28
2022-10-18T01:02:00,rvs,21.89
2022-10-18T01:03:00,rvs,21.03
2022-10-18T01:04:00,rvs,22.32
2022-10-18T01:05:00,rvs,21.36
2022-10-18T01:06:00,rvs,20.43
2022-10-18T01:07:00,rvs,22.07
2022-10-18T01:08:00,rvs,17.41
2022-10-18T01:09:00,rvs,17.61
2022-10-18T01:10:00,rvs,10.42
2022-10-18T01:11:00,rvs,10.57
2022-10-18T01:12:00,rvs,10.72
2022-10-18T01:13:00,rvs,10.48
2022-10-18T01:14:00,rvs,10.84
2022-10-18T01:15:00,rvs,10.97
2022-10-18T01:16:00,rvs,11.10
2022-10-18T01:17:00,rvs,11.20
2022-10-18T01:18:00,rvs,10.91
2022-10-18T01:19:00,rvs,10.91
2022-10-18T01:20:00,rvs,10.36
2022-10-18T01:21:00,rvs,13.85
2022-10-18T01:22:00,rvs,14.43
2022-10-18T01:23:00,rvs,14.94
2022-10-18T01:24:00,rvs,20.85
2022-10-18T01:25:00,rvs,21.39
2022-10-18T01:26:00,rvs,21.69
2022-10-18T01:27:00,rvs,21.77
2022-10-18T01:28:00,rvs,13.46
2022-10-18T01:29:00,rvs,14.76
2022-10-18T01:30:00,rvs,14.52
2022-10-18T01:31:00,rvs,15.05
2022-10-18T01:32:00,rvs,16.13
2022-10-18T01:33:00,rvs,17.46
2022-10-18T01:34:00,rvs,17.47
2022-10-18T01:35:00,rvs,16.83
2022-10-18T01:36:00,rvs,17.06
2022-10-18T01:37:00,rvs,16.57
2022-10-18T01:38:00,rvs,9.25
2022-10-18T01:39:00,rvs,8.87
2022-10-18T01:40:00,rvs,9.03
2022-10-18T01:41:00,rvs,8.96
2022-10-18T01:42:00,rvs,8.91
2022-10-18T01:43:00,rvs,9.04
2022-10-18T01:44:00,rvs,9.04
2022-10-18T01:45:00,rvs,9.01
2022-10-18T01:46:00,rvs,9.06
2022-10-18T01:47:00,rvs,9.01
2022-10-18T01:48:00,rvs,8.94
2022-10-18T01:49:00,rvs,8.82
2022-10-18T01:50:00,rvs,8.86
2022-10-18T01:51:00,rvs,9.10
2022-10-18T01:52:00,rvs,9.09
2022-10-18T01:53:00,rvs,9.02
2022-10-18T01:54:00,rvs,9.04
2022-10-18T01:55:00,rvs,9.15
2022-10-18T01:56:00,rvs,8.89
2022-10-18T01:57:00,rvs,9.12
2022-10-18T01:58:00,rvs,9.19
2022-10-18T01:59:00,rvs,9.04
2022-10-18T02:00:00,rvs,9.61
2022-10-18T02:01:00,rvs,10.06
2022-10-18T02:02:00,rvs,9.98
2022-10-18T02:03:00,rvs,9.98
2022-10-18T02:04:00,rvs,9.89
2022-10-18T02:05:00,rvs,10.00
2022-10-18T02:06:00,rvs,10.07
2022-10-18T02:07:00,rvs,10.34
2022-10-18T02:08:00,rvs,10.20
2022-10-18T02:09:00,rvs,9.95
2022-10-18T02:10:00,rvs,10.01
2022-10-18T02:11:00,rvs,9.93
2022-10-18T02:12:00,rvs,9.99
2022-10-18T02:13:00,rvs,10.32
2022-10-18T02:14:00,rvs,14.82
2022-10-18T02:15:00,rvs,17.51
2022-10-18T02:16:00,rvs,18.67
2022-10-18T02:17:00,rvs,19.21
2022-10-18T02:18:00,rvs,14.51
2022-10-18T02:19:00,rvs,16.13
2022-10-18T02:20:00,rvs,14.90
2022-10-18T02:21:00,rvs,14.45
2022-10-18T02:22:00,rvs,9.89
2022-10-18T02:23:00,rvs,9.55
2022-10-18T02:24:00,rvs,9.04
2022-10-18T02:25:00,rvs,8.87
2022-10-18T02:26:00,rvs,8.84
2022-10-18T02:27:00,rvs,12.17
2022-10-18T02:28:00,rvs,13.42
2022-10-18T02:29:00,rvs,14.45
2022-10-18T02:30:00,rvs,16.55
2022-10-18T02:31:00,rvs,15.61
2022-10-18T02:32:00,rvs,14.62
2022-10-18T02:33:00,rvs,14.42
2022-10-18T02:34:00,rvs,14.77
2022-10-18T02:35:00,rvs,21.18
2022-10-18T02:36:00,rvs,21.96
2022-10-18T02:37:00,rvs,22.08
2022-10-18T02:38:00,rvs,22.17
2022-10-18T02:39:00,rvs,10.69
2022-10-18T02:40:00,rvs,12.57
2022-10-18T02:41:00,rvs,13.45
2022-10-18T02:42:00,rvs,14.45
2022-10-18T02:43:00,rvs,16.57
2022-10-18T02:44:00,rvs,16.08
2022-10-18T02:45:00,rvs,17.98
2022-10-18T02:46:00,rvs,17.38
2022-10-18T02:47:00,rvs,16.22
2022-10-18T02:48:00,rvs,18.85
2022-10-18T02:49:00,rvs,21.60
2022-10-18T02:50:00,rvs,20.61
2022-10-18T02:51:00,rvs,20.92
2022-10-18T02:52:00,rvs,20.88
2022-10-18T02:53:00,rvs,24.79
2022-10-18T02:54:00,rvs,25.84
2022-10-18T02:55:00,rvs,24.80
2022-10-18T02:56:00,rvs,24.68
2022-10-18T02:57:00,rvs,27.83
2022-10-18T02:58:00,rvs,29.31
2022-10-18T02:59:00,rvs,29.82
2022-10-18T03:00:00,rvs,26.42
2022-10-18T03:01:00,rvs,27.86
2022-10-18T03:02:00,rvs,16.28
2022-10-18T03:03:00,rvs,16.74
2022-10-18T03:04:00,rvs,15.78
2022-10-18T03:05:00,rvs,15.23
2022-10-18T03:06:00,rvs,16.69
2022-10-18T03:07:00,rvs,16.73
2022-10-18T03:08:00,rvs,15.84
2022-10-18T03:09:00,rvs,14.97
2022-10-18T03:10:00,rvs,15.98
2022-10-18T03:11:00,rvs,16.76
2022-10-18T03:12:00,rvs,9.85
2022-10-18T03:13:00,rvs,9.71
2022-10-18T03:14:00,rvs,9.87
2022-10-18T03:15:00,rvs,9.43
2022-10-18T03:16:00,rvs,9.57
2022-10-18T03:17:00,rvs,9.60
2022-10-18T03:18:00,rvs,9.76
2022-10-18T03:19:00,rvs,9.28
2022-10-18T03:20:00,rvs,9.09
2022-10-18T03:21:00,rvs,9.21
2022-10-18T03:22:00,rvs,9.07
2022-10-18T03:23:00,rvs,9.06
2022-10-18T03:24:00,rvs,8.88
2022-10-18T03:25:00,rvs,8.87
2022-10-18T03:26:00,rvs,8.79
2022-10-18T03:27:00,rvs,8.61
2022-10-18T03:28:00,rvs,8.93
2022-10-18T03:29:00,rvs,8.84
2022-10-18T03:30:00,rvs,8.75
2022-10-18T03:31:00,rvs,8.98
2022-10-18T03:32:00,rvs,8.85
2022-10-18T03:33:00,rvs,8.93
2022-10-18T03:34:00,rvs,9.00
2022-10-18T03:35:00,rvs,9.03
2022-10-18T03:36:00,rvs,9.08
2022-10-18T03:37:00,rvs,9.02
2022-10-18T03:38:00,rvs,9.00
2022-10-18T03:39:00,rvs,9.05
2022-10-18T03:40:00,rvs,8.91
2022-10-18T03:41:00,rvs,8.79
2022-10-18T03:42:00,rvs,8.71
2022-10-18T03:43:00,rvs,8.57
2022-10-18T03:44:00,rvs,8.49
2022-10-18T03:45:00,rvs,8.52
2022-10-18T03:46:00,rvs,8.47
2022-10-18T03:47:00,rvs,8.45
2022-10-18T03:48:00,rvs,8.46
2022-10-18T03:49:00,rvs,11.90
2022-10-18T03:50:00,rvs,12.45
2022-10-18T03:51:00,rvs,13.12
2022-10-18T03:52:00,rvs,13.95
2022-10-18T03:53:00,rvs,14.14
2022-10-18T03:54:00,rvs,13.54
2022-10-18T03:55:00,rvs,13.19
2022-10-18T03:56:00,rvs,15.99
2022-10-18T03:57:00,rvs,13.25
2022-10-18T03:58:00,rvs,14.77
2022-10-18T03:59:00,rvs,16.16
2022-10-18T04:00:00,rvs,16.43
2022-10-18T04:01:00,rvs,15.16
2022-10-18T04:02:00,rvs,14.19
2022-10-18T04:03:00,rvs,13.98
2022-10-18T04:04:00,rvs,14.08
2022-10-18T04:05:00,rvs,28.35
2022-10-18T04:06:00,rvs,27.41
2022-10-18T04:07:00,rvs,42.90
2022-10-18T04:08:00,rvs,46.88
2022-10-18T04:09:00,rvs,46.67
2022-10-18T04:10:00,rvs,46.59
2022-10-18T04:11:00,rvs,14.75
2022-10-18T04:12:00,rvs,11.69
2022-10-18T04:13:00,rvs,12.60
2022-10-18T04:14:00,rvs,12.55
2022-10-18T04:15:00,rvs,16.95
2022-10-18T04:16:00,rvs,20.71
2022-10-18T04:17:00,rvs,23.41
2022-10-18T04:18:00,rvs,25.74
2022-10-18T04:19:00,rvs,22.77
2022-10-18T04:20:00,rvs,23.54
2022-10-18T04:21:00,rvs,21.49
2022-10-18T04:22:00,rvs,21.79
2022-10-18T04:23:00,rvs,22.12
2022-10-18T04:24:00,rvs,21.53
2022-10-18T04:25:00,rvs,22.14
2022-10-18T04:26:00,rvs,20.79
2022-10-18T04:27:00,rvs,22.56
2022-10-18T04:28:00,rvs,23.20
2022-10-18T04:29:00,rvs,23.66
2022-10-18T04:30:00,rvs,25.10
2022-10-18T04:31:00,rvs,19.93
2022-10-18T04:32:00,rvs,20.19
2022-10-18T04:33:00,rvs,19.93
2022-10-18T04:34:00,rvs,12.83
2022-10-18T04:35:00,rvs,11.64
2022-10-18T04:36:00,rvs,8.33
2022-10-18T04:37:00,rvs,8.42
2022-10-18T04:38:00,rvs,8.42
2022-10-18T04:39:00,rvs,8.39
2022-10-18T04:40:00,rvs,8.41
2022-10-18T04:41:00,rvs,8.45
2022-10-18T04:42:00,rvs,8.54
2022-10-18T04:43:00,rvs,8.49
2022-10-18T04:44:00,rvs,8.51
2022-10-18T04:45:00,rvs,8.64
2022-10-18T04:46:00,rvs,8.71
2022-10-18T04:47:00,rvs,8.86
2022-10-18T04:48:00,rvs,8.73
2022-10-18T04:49:00,rvs,9.09
2022-10-18T04:50:00,rvs,9.23
2022-10-18T04:51:00,rvs,9.23
2022-10-18T04:52:00,rvs,9.29
2022-10-18T04:53:00,rvs,8.65
2022-10-18T04:54:00,rvs,12.30
2022-10-18T04:55:00,rvs,13.65
2022-10-18T04:56:00,rvs,14.37
2022-10-18T04:57:00,rvs,16.38
2022-10-18T04:58:00,rvs,16.67
2022-10-18T04:59:00,rvs,17.22
2022-10-18T05:00:00,rvs,17.02
2022-10-18T05:01:00,rvs,16.64
2022-10-18T05:02:00,rvs,15.39
2022-10-18T05:03:00,rvs,16.78
2022-10-18T05:04:00,rvs,20.35
2022-10-18T05:05:00,rvs,22.78
2022-10-18T05:06:00,rvs,27.73
2022-10-18T05:07:00,rvs,20.34
2022-10-18T05:08:00,rvs,20.14
2022-10-18T05:09:00,rvs,19.99
2022-10-18T05:10:00,rvs,19.26
2022-10-18T05:11:00,rvs,18.83
2022-10-18T05:12:00,rvs,18.35
2022-10-18T05:13:00,rvs,18.22
2022-10-18T05:14:00,rvs,13.12
2022-10-18T05:15:00,rvs,20.49
2022-10-18T05:16:00,rvs,21.52
2022-10-18T05:17:00,rvs,21.86
2022-10-18T05:18:00,rvs,22.40
2022-10-18T05:19:00,rvs,10.35
2022-10-18T05:20:00,rvs,12.37
2022-10-18T05:21:00,rvs,13.27
2022-10-18T05:22:00,rvs,14.31
2022-10-18T05:23:00,rvs,16.07
2022-10-18T05:24:00,rvs,15.62
2022-10-18T05:25:00,rvs,18.72
2022-10-18T05:26:00,rvs,17.97
2022-10-18T05:27:00,rvs,17.47
2022-10-18T05:28:00,rvs,17.85
2022-10-18T05:29:00,rvs,17.72
2022-10-18T05:30:00,rvs,14.56
2022-10-18T05:31:00,rvs,14.21
2022-10-18T05:32:00,rvs,13.73
2022-10-18T05:33:00,rvs,13.79
2022-10-18T05:34:00,rvs,13.69
2022-10-18T05:35:00,rvs,13.62
2022-10-18T05:36:00,rvs,13.15
2022-10-18T05:37:00,rvs,12.85
2022-10-18T05:38:00,rvs,12.56
2022-10-18T05:39:00,rvs,16.95
2022-10-18T05:40:00,rvs,16.93
2022-10-18T05:41:00,rvs,17.55
2022-10-18T05:42:00,rvs,14.19
2022-10-18T05:43:00,rvs,20.28
2022-10-18T05:44:00,rvs,19.95
2022-10-18T05:45:00,rvs,20.45
2022-10-18T05:46:00,rvs,20.12
2022-10-18T05:47:00,rvs,11.69
2022-10-18T05:48:00,rvs,15.93
2022-10-18T05:49:00,rvs,18.06
2022-10-18T05:50:00,rvs,19.52
2022-10-18T05:51:00,rvs,21.12
2022-10-18T05:52:00,rvs,22.50
2022-10-18T05:53:00,rvs,21.81
2022-10-18T05:54:00,rvs,21.31
2022-10-18T05:55:00,rvs,22.49
2022-10-18T05:56:00,rvs,20.25
2022-10-18T05:57:00,rvs,21.33
2022-10-18T05:58:00,rvs,16.61
2022-10-18T05:59:00,rvs,16.37
2022-10-18T06:00:00,rvs,16.86
2022-10-18T06:01:00,rvs,15.76
2022-10-18T06:02:00,rvs,15.67
2022-10-18T06:03:00,rvs,15.32
2022-10-18T06:04:00,rvs,15.07
2022-10-18T06:05:00,rvs,15.09
2022-10-18T06:06:00,rvs,9.15
2022-10-18T06:07:00,rvs,9.50
2022-10-18T06:08:00,rvs,9.85
2022-10-18T06:09:00,rvs,9.39
2022-10-18T06:10:00,rvs,9.39
2022-10-18T06:11:00,rvs,13.64
2022-10-18T06:12:00,rvs,13.67
2022-10-18T06:13:00,rvs,13.15
2022-10-18T06:14:00,rvs,8.83
2022-10-18T06:15:00,rvs,8.93
2022-10-18T06:16:00,rvs,8.60
2022-10-18T06:17:00,rvs,8.49
2022-10-18T06:18:00,rvs,8.55
2022-10-18T06:19:00,rvs,8.98
2022-10-18T06:20:00,rvs,8.63
2022-10-18T06:21:00,rvs,8.36
2022-10-18T06:22:00,rvs,8.43
2022-10-18T06:23:00,rvs,9.35
2022-10-18T06:24:00,rvs,12.91
2022-10-18T06:25:00,rvs,13.82
2022-10-18T06:26:00,rvs,14.18
2022-10-18T06:27:00,rvs,15.99
2022-10-18T06:28:00,rvs,15.44
2022-10-18T06:29:00,rvs,15.21
2022-10-18T06:30:00,rvs,14.21
2022-10-18T06:31:00,rvs,15.14
2022-10-18T06:32:00,rvs,15.33
2022-10-18T06:33:00,rvs,14.87
2022-10-18T06:34:00,rvs,15.27
2022-10-18T06:35:00,rvs,14.85
2022-10-18T06:36:00,rvs,14.43
2022-10-18T06:37:00,rvs,14.31
2022-10-18T06:38:00,rvs,14.04
2022-10-18T06:39:00,rvs,14.01
2022-10-18T06:40:00,rvs,13.99
2022-10-18T06:41:00,rvs,8.16
2022-10-18T06:42:00,rvs,8.31
2022-10-18T06:43:00,rvs,8.28
2022-10-18T06:44:00,rvs,8.20
2022-10-18T06:45:00,rvs,8.14
2022-10-18T06:46:00,rvs,8.24
2022-10-18T06:47:00,rvs,8.15
2022-10-18T06:48:00,rvs,8.13
2022-10-18T06:49:00,rvs,11.05
2022-10-18T06:50:00,rvs,12.20
2022-10-18T06:51:00,rvs,13.01
2022-10-18T06:52:00,rvs,27.56
2022-10-18T06:53:00,rvs,28.74
2022-10-18T06:54:00,rvs,29.73
2022-10-18T06:55:00,rvs,30.92
2022-10-18T06:56:00,rvs,21.71
2022-10-18T06:57:00,rvs,22.52
2022-10-18T06:58:00,rvs,21.56
2022-10-18T06:59:00,rvs,17.97
2022-10-18T07:00:00,rvs,19.50
2022-10-18T07:01:00,rvs,18.58
2022-10-18T07:02:00,rvs,18.89
2022-10-18T07:03:00,rvs,18.25
2022-10-18T07:04:00,rvs,18.65
2022-10-18T07:05:00,rvs,13.38
2022-10-18T07:06:00,rvs,9.22
2022-10-18T07:07:00,rvs,9.32
2022-10-18T07:08:00,rvs,9.04
2022-10-18T07:09:00,rvs,9.09
2022-10-18T07:10:00,rvs,8.78
2022-10-18T07:11:00,rvs,8.83
2022-10-18T07:12:00,rvs,9.27
2022-10-18T07:13:00,rvs,9.04
2022-10-18T07:14:00,rvs,11.55
2022-10-18T07:15:00,rvs,12.64
2022-10-18T07:16:00,rvs,13.52
2022-10-18T07:17:00,rvs,14.54
2022-10-18T07:18:00,rvs,16.64
2022-10-18T07:19:00,rvs,17.96
2022-10-18T07:20:00,rvs,19.87
2022-10-18T07:21:00,rvs,18.32
2022-10-18T07:22:00,rvs,19.32
2022-10-18T07:23:00,rvs,19.28
2022-10-18T07:24:00,rvs,18.05
2022-10-18T07:25:00,rvs,17.37
2022-10-18T07:26:00,rvs,15.36
2022-10-18T07:27:00,rvs,14.25
2022-10-18T07:28:00,rvs,17.90
2022-10-18T07:29:00,rvs,18.25
2022-10-18T07:30:00,rvs,18.45
2022-10-18T07:31:00,rvs,18.94
2022-10-18T07:32:00,rvs,16.60
2022-10-18T07:33:00,rvs,17.60
2022-10-18T07:34:00,rvs,20.00
2022-10-18T07:35:00,rvs,15.47
2022-10-18T07:36:00,rvs,14.33
2022-10-18T07:37:00,rvs,13.95
2022-10-18T07:38:00,rvs,13.13
2022-10-18T07:39:00,rvs,13.31
2022-10-18T07:40:00,rvs,13.11
2022-10-18T07:41:00,rvs,13.41
2022-10-18T07:42:00,rvs,12.85
2022-10-18T07:43:00,rvs,12.80
2022-10-18T07:44:00,rvs,12.89
2022-10-18T07:45:00,rvs,13.36
2022-10-18T07:46:00,rvs,16.81
2022-10-18T07:47:00,rvs,18.15
2022-10-18T07:48:00,rvs,13.93
2022-10-18T07:49:00,rvs,16.76
2022-10-18T07:50:00,rvs,16.80
2022-10-18T07:51:00,rvs,17.94
2022-10-18T07:52:00,rvs,16.95
2022-10-18T07:53:00,rvs,16.26
2022-10-18T07:54:00,rvs,16.34
2022-10-18T07:55:00,rvs,16.86
2022-10-18T07:56:00,rvs,18.36
2022-10-18T07:57:00,rvs,17.85
2022-10-18T07:58:00,rvs,20.36
2022-10-18T07:59:00,rvs,24.79
2022-10-18T08:00:00,rvs,29.71
2022-10-18T08:01:00,rvs,29.88
2022-10-18T08:02:00,rvs,27.87
2022-10-18T08:03:00,rvs,25.54
2022-10-18T08:04:00,rvs,25.63
2022-10-18T08:05:00,rvs,26.70
2022-10-18T08:06:00,rvs,22.04
2022-10-18T08:07:00,rvs,21.45
2022-10-18T08:08:00,rvs,21.27
2022-10-18T08:09:00,rvs,21.36
2022-10-18T08:10:00,rvs,26.67
2022-10-18T08:11:00,rvs,26.82
2022-10-18T08:12:00,rvs,27.17
2022-10-18T08:13:00,rvs,17.42
2022-10-18T08:14:00,rvs,16.60
2022-10-18T08:15:00,rvs,16.38
2022-10-18T08:16:00,rvs,16.48
2022-10-18T08:17:00,rvs,15.93
2022-10-18T08:18:00,rvs,14.29
2022-10-18T08:19:00,rvs,14.10
2022-10-18T08:20:00,rvs,23.22
2022-10-18T08:21:00,rvs,24.44
2022-10-18T08:22:00,rvs,24.27
2022-10-18T08:23:00,rvs,23.04
2022-10-18T08:24:00,rvs,23.24
2022-10-18T08:25:00,rvs,23.22
2022-10-18T08:26:00,rvs,23.29
2022-10-18T08:27:00,rvs,25.10
2022-10-18T08:28:00,rvs,18.66
2022-10-18T08:29:00,rvs,18.56
2022-10-18T08:30:00,rvs,18.57
2022-10-18T08:31:00,rvs,21.85
2022-10-18T08:32:00,rvs,22.93
2022-10-18T08:33:00,rvs,23.42
2022-10-18T08:34:00,rvs,25.32
2022-10-18T08:35:00,rvs,27.13
2022-10-18T08:36:00,rvs,30.28
2022-10-18T08:37:00,rvs,28.93
2022-10-18T08:38:00,rvs,30.35
2022-10-18T08:39:00,rvs,33.65
2022-10-18T08:40:00,rvs,33.57
2022-10-18T08:41:00,rvs,35.95
2022-10-18T08:42:00,rvs,37.54
2022-10-18T08:43:00,rvs,37.83
2022-10-18T08:44:00,rvs,35.05
2022-10-18T08:45:00,rvs,35.48
2022-10-18T08:46:00,rvs,33.73
2022-10-18T08:47:00,rvs,31.15
2022-10-18T08:48:00,rvs,24.83
2022-10-18T08:49:00,rvs,24.08
2022-10-18T08:50:00,rvs,22.28
2022-10-18T08:51:00,rvs,24.03
2022-10-18T08:52:00,rvs,26.23
2022-10-18T08:53:00,rvs,42.85
2022-10-18T08:54:00,rvs,24.34
2022-10-18T08:55:00,rvs,18.94
2022-10-18T08:56:00,rvs,18.32
2022-10-18T08:57:00,rvs,18.28
2022-10-18T08:58:00,rvs,18.75
2022-10-18T08:59:00,rvs,15.72
2022-10-18T09:00:00,rvs,15.11
2022-10-18T09:01:00,rvs,15.43
2022-10-18T09:02:00,rvs,15.11
2022-10-18T09:03:00,rvs,18.99
2022-10-18T09:04:00,rvs,18.84
2022-10-18T09:05:00,rvs,18.96
2022-10-18T09:06:00,rvs,15.09
2022-10-18T09:07:00,rvs,11.47
2022-10-18T09:08:00,rvs,14.89
2022-10-18T09:09:00,rvs,17.43
2022-10-18T09:10:00,rvs,20.78
2022-10-18T09:11:00,rvs,22.11
2022-10-18T09:12:00,rvs,26.35
2022-10-18T09:13:00,rvs,21.51
2022-10-18T09:14:00,rvs,20.32
2022-10-18T09:15:00,rvs,20.35
2022-10-18T09:16:00,rvs,16.94
2022-10-18T09:17:00,rvs,21.36
2022-10-18T09:18:00,rvs,21.16
2022-10-18T09:19:00,rvs,20.62
2022-10-18T09:20:00,rvs,20.21
2022-10-18T09:21:00,rvs,20.16
2022-10-18T09:22:00,rvs,17.40
2022-10-18T09:23:00,rvs,17.74
2022-10-18T09:24:00,rvs,13.61
2022-10-18T09:25:00,rvs,13.66
2022-10-18T09:26:00,rvs,12.78
2022-10-18T09:27:00,rvs,12.80
2022-10-18T09:28:00,rvs,13.28
2022-10-18T09:29:00,rvs,14.21
2022-10-18T09:30:00,rvs,14.43
2022-10-18T09:31:00,rvs,8.66
2022-10-18T09:32:00,rvs,8.56
2022-10-18T09:33:00,rvs,8.53
2022-10-18T09:34:00,rvs,8.49
2022-10-18T09:35:00,rvs,8.66
2022-10-18T09:36:00,rvs,8.99
2022-10-18T09:37:00,rvs,9.02
2022-10-18T09:38:00,rvs,9.40
2022-10-18T09:39:00,rvs,9.70
2022-10-18T09:40:00,rvs,9.80
2022-10-18T09:41:00,rvs,9.66
2022-10-18T09:42:00,rvs,10.17
2022-10-18T09:43:00,rvs,10.17
2022-10-18T09:44:00,rvs,8.80
2022-10-18T09:45:00,rvs,8.84
2022-10-18T09:46:00,rvs,8.75
2022-10-18T09:47:00,rvs,8.90
2022-10-18T09:48:00,rvs,9.18
2022-10-18T09:49:00,rvs,9.19
2022-10-18T09:50:00,rvs,9.27
2022-10-18T09:51:00,rvs,9.21
2022-10-18T09:52:00,rvs,9.24
2022-10-18T09:53:00,rvs,10.21
2022-10-18T09:54:00,rvs,10.22
2022-10-18T09:55:00,rvs,13.09
2022-10-18T09:56:00,rvs,14.16
2022-10-18T09:57:00,rvs,15.19
2022-10-18T09:58:00,rvs,17.81
2022-10-18T09:59:00,rvs,21.77
2022-10-18T10:00:00,rvs,21.32
2022-10-18T10:01:00,rvs,21.26
2022-10-18T10:02:00,rvs,17.01
2022-10-18T10:03:00,rvs,17.87
2022-10-18T10:04:00,rvs,18.92
2022-10-18T10:05:00,rvs,20.79
2022-10-18T10:06:00,rvs,22.24
2022-10-18T10:07:00,rvs,22.45
2022-10-18T10:08:00,rvs,22.65
2022-10-18T10:09:00,rvs,21.93
2022-10-18T10:10:00,rvs,21.23
2022-10-18T10:11:00,rvs,21.80
2022-10-18T10:12:00,rvs,21.37
2022-10-18T10:13:00,rvs,14.58
2022-10-18T10:14:00,rvs,14.46
2022-10-18T10:15:00,rvs,14.59
2022-10-18T10:16:00,rvs,8.78
2022-10-18T10:17:00,rvs,13.32
2022-10-18T10:18:00,rvs,13.13
2022-10-18T10:19:00,rvs,26.90
2022-10-18T10:20:00,rvs,21.85
2022-10-18T10:21:00,rvs,23.30
2022-10-18T10:22:00,rvs,23.32
2022-10-18T10:23:00,rvs,23.00
2022-10-18T10:24:00,rvs,9.49
2022-10-18T10:25:00,rvs,8.91
2022-10-18T10:26:00,rvs,11.84
2022-10-18T10:27:00,rvs,13.69
2022-10-18T10:28:00,rvs,14.48
2022-10-18T10:29:00,rvs,14.64
2022-10-18T10:30:00,rvs,16.41
2022-10-18T10:31:00,rvs,16.41
2022-10-18T10:32:00,rvs,16.42
2022-10-18T10:33:00,rvs,18.47
2022-10-18T10:34:00,rvs,19.39
2022-10-18T10:35:00,rvs,20.09
2022-10-18T10:36:00,rvs,22.24
2022-10-18T10:37:00,rvs,21.82
2022-10-18T10:38:00,rvs,20.56
2022-10-18T10:39:00,rvs,20.14
2022-10-18T10:40:00,rvs,37.42
2022-10-18T10:41:00,rvs,41.27
2022-10-18T10:42:00,rvs,44.95
2022-10-18T10:43:00,rvs,45.46
2022-10-18T10:44:00,rvs,23.13
2022-10-18T10:45:00,rvs,23.12
2022-10-18T10:46:00,rvs,21.31
2022-10-18T10:47:00,rvs,28.23
2022-10-18T10:48:00,rvs,29.08
2022-10-18T10:49:00,rvs,28.33
2022-10-18T10:50:00,rvs,33.37
2022-10-18T10:51:00,rvs,35.18
2022-10-18T10:52:00,rvs,42.43
2022-10-18T10:53:00,rvs,45.50
2022-10-18T10:54:00,rvs,43.74
2022-10-18T10:55:00,rvs,44.91
2022-10-18T10:56:00,rvs,46.41
2022-10-18T10:57:00,rvs,36.23
2022-10-18T10:58:00,rvs,39.96
2022-10-18T10:59:00,rvs,39.72
2022-10-18T11:00:00,rvs,41.80
2022-10-18T11:01:00,rvs,34.71
2022-10-18T11:02:00,rvs,23.99
2022-10-18T11:03:00,rvs,17.79
2022-10-18T11:04:00,rvs,9.00
2022-10-18T11:05:00,rvs,9.63
2022-10-18T11:06:00,rvs,9.65
2022-10-18T11:07:00,rvs,9.67
2022-10-18T11:08:00,rvs,9.38
2022-10-18T11:09:00,rvs,9.37
2022-10-18T11:10:00,rvs,9.31
2022-10-18T11:11:00,rvs,9.64
2022-10-18T11:12:00,rvs,9.58
2022-10-18T11:13:00,rvs,9.70
2022-10-18T11:14:00,rvs,9.41
2022-10-18T11:15:00,rvs,9.45
2022-10-18T11:16:00,rvs,9.24
2022-10-18T11:17:00,rvs,9.32
2022-10-18T11:18:00,rvs,9.52
2022-10-18T11:19:00,rvs,9.52
2022-10-18T11:20:00,rvs,9.36
2022-10-18T11:21:00,rvs,9.40
2022-10-18T11:22:00,rvs,10.11
2022-10-18T11:23:00,rvs,10.11
2022-10-18T11:24:00,rvs,10.42
2022-10-18T11:25:00,rvs,9.63
2022-10-18T11:26:00,rvs,9.75
2022-10-18T11:27:00,rvs,11.47
2022-10-18T11:28:00,rvs,13.52
2022-10-18T11:29:00,rvs,13.94
2022-10-18T11:30:00,rvs,13.91
2022-10-18T11:31:00,rvs,15.14
2022-10-18T11:32:00,rvs,14.26
2022-10-18T11:33:00,rvs,12.95
2022-10-18T11:34:00,rvs,13.57
2022-10-18T11:35:00,rvs,8.94
2022-10-18T11:36:00,rvs,9.08
2022-10-18T11:37:00,rvs,8.88
2022-10-18T11:38:00,rvs,8.92
2022-10-18T11:39:00,rvs,8.93
2022-10-18T11:40:00,rvs,8.96
2022-10-18T11:41:00,rvs,8.88
2022-10-18T11:42:00,rvs,8.93
2022-10-18T11:43:00,rvs,9.58
2022-10-18T11:44:00,rvs,9.29
2022-10-18T11:45:00,rvs,9.26
2022-10-18T11:46:00,rvs,9.19
2022-10-18T11:47:00,rvs,9.37
2022-10-18T11:48:00,rvs,9.27
2022-10-18T11:49:00,rvs,9.33
2022-10-18T11:50:00,rvs,9.63
2022-10-18T11:51:00,rvs,9.40
2022-10-18T11:52:00,rvs,10.03
2022-10-18T11:53:00,rvs,9.86
2022-10-18T11:54:00,rvs,10.27
2022-10-18T11:55:00,rvs,9.93
2022-10-18T11:56:00,rvs,9.97
2022-10-18T11:57:00,rvs,9.06
2022-10-18T11:58:00,rvs,10.56
2022-10-18T11:59:00,rvs,10.06
2022-10-18T12:00:00,rvs,10.01
2022-10-18T12:01:00,rvs,10.16
2022-10-18T12:02:00,rvs,10.03
2022-10-18T12:03:00,rvs,8.32
2022-10-18T12:04:00,rvs,10.89
2022-10-18T12:05:00,rvs,12.46
2022-10-18T12:06:00,rvs,13.75
2022-10-18T12:07:00,rvs,15.24
2022-10-18T12:08:00,rvs,15.40
2022-10-18T12:09:00,rvs,14.93
2022-10-18T12:10:00,rvs,14.83
2022-10-18T12:11:00,rvs,14.09
2022-10-18T12:12:00,rvs,13.05
2022-10-18T12:13:00,rvs,13.79
2022-10-18T12:14:00,rvs,15.00
2022-10-18T12:15:00,rvs,14.40
2022-10-18T12:16:00,rvs,14.52
2022-10-18T12:17:00,rvs,14.77
2022-10-18T12:18:00,rvs,14.86
2022-10-18T12:19:00,rvs,14.38
2022-10-18T12:20:00,rvs,14.22
2022-10-18T12:21:00,rvs,9.61
2022-10-18T12:22:00,rvs,9.02
2022-10-18T12:23:00,rvs,9.11
2022-10-18T12:24:00,rvs,9.52
2022-10-18T12:25:00,rvs,9.57
2022-10-18T12:26:00,rvs,13.93
2022-10-18T12:27:00,rvs,14.04
2022-10-18T12:28:00,rvs,13.89
2022-10-18T12:29:00,rvs,12.98
2022-10-18T12:30:00,rvs,8.59
2022-10-18T12:31:00,rvs,8.49
2022-10-18T12:32:00,rvs,8.31
2022-10-18T12:33:00,rvs,8.41
2022-10-18T12:34:00,rvs,8.23
2022-10-18T12:35:00,rvs,8.44
2022-10-18T12:36:00,rvs,10.59
2022-10-18T12:37:00,rvs,11.39
2022-10-18T12:38:00,rvs,8.53
2022-10-18T12:39:00,rvs,8.50
2022-10-18T12:40:00,rvs,9.44
2022-10-18T12:41:00,rvs,8.36
2022-10-18T12:42:00,rvs,11.37
2022-10-18T12:43:00,rvs,12.79
2022-10-18T12:44:00,rvs,14.76
2022-10-18T12:45:00,rvs,17.23
2022-10-18T12:46:00,rvs,16.10
2022-10-18T12:47:00,rvs,17.94
2022-10-18T12:48:00,rvs,16.36
2022-10-18T12:49:00,rvs,15.43
2022-10-18T12:50:00,rvs,15.17
2022-10-18T12:51:00,rvs,15.01
2022-10-18T12:52:00,rvs,11.86
2022-10-18T12:53:00,rvs,13.63
2022-10-18T12:54:00,rvs,14.67
2022-10-18T12:55:00,rvs,16.58
2022-10-18T12:56:00,rvs,16.44
2022-10-18T12:57:00,rvs,17.04
2022-10-18T12:58:00,rvs,26.19
2022-10-18T12:59:00,rvs,28.58
2022-10-18T13:00:00,rvs,30.57
2022-10-18T13:01:00,rvs,31.32
2022-10-18T13:02:00,rvs,31.79
2022-10-18T13:03:00,rvs,32.12
2022-10-18T13:04:00,rvs,35.41
2022-10-18T13:05:00,rvs,36.97
2022-10-18T13:06:00,rvs,28.19
2022-10-18T13:07:00,rvs,38.48
2022-10-18T13:08:00,rvs,39.63
2022-10-18T13:09:00,rvs,33.62
2022-10-18T13:10:00,rvs,28.63
2022-10-18T13:11:00,rvs,19.34
2022-10-18T13:12:00,rvs,24.71
2022-10-18T13:13:00,rvs,25.89
2022-10-18T13:14:00,rvs,25.09
2022-10-18T13:15:00,rvs,25.80
2022-10-18T13:16:00,rvs,19.90
2022-10-18T13:17:00,rvs,18.56
2022-10-18T13:18:00,rvs,17.65
2022-10-18T13:19:00,rvs,17.51
2022-10-18T13:20:00,rvs,16.36
2022-10-18T13:21:00,rvs,17.02
2022-10-18T13:22:00,rvs,17.42
2022-10-18T13:23:00,rvs,10.60
2022-10-18T13:24:00,rvs,10.87